Flag for Poland Weather past 2 weeks in Gdańsk, Poland

Now
48 °F

Sunny.


Feels Like: 48 °F
Forecast: 56 / 73 °F
Wind: 2 mph from North

Location: Gdansk-Rebiechowo

Current Time: Aug 2, 2015 at 6:48:23 AM

Latest Report: Aug 2, 2015 at 6:00 AM


Visibility: 10 mi

Pressure: 30.15 "Hg

Humidity: 100%

Dew point: 48 °F

Location of GdańskLocation

Historic Weather in Gdańsk — Graph

°F

Gdańsk temperature yesterday

Maximum temperature yesterday: 68 °F (at 4:30 PM)
Minimum temperature yesterday: 48 °F (at 2:00 AM)
Average temperature yesterday: 57 °F

Past Weeks' High & Low Weather Summary

 TemperatureHumidityPressure
High79 °F (Jul 21, 4:30 PM)100% (Jul 19, 5:30 PM)30.12 "Hg (Jul 19, 5:30 PM)
Low46 °F (Aug 2, 4:00 AM)38% (Jul 24, 2:30 PM)29.53 "Hg (Jul 28, 3:30 AM)
Average61 °F77%29.82 "Hg
* Reported Jul 18 5:00 AM — Aug 2 5:00 AM, Gdańsk, Weather by CustomWeather, © 2015

Note: Actual official high and low records may vary slightly from our data, if they occured in-between our weather recording intervals... More about our weather records

Advertising

Gdańsk weather history for previous 24 hours

 ConditionsComfort  
Time TempWeatherWind HumidityBarometerVisibility
5:00 AM
Sun, Aug 2
46 °FClear.No wind100%30.12 "Hg10 mi
4:30 AM46 °FClear.2 mph100%30.12 "Hg10 mi
4:00 AM46 °FClear.1 mph100%30.12 "Hg10 mi
3:30 AM48 °FClear.No wind94%30.12 "Hg10 mi
3:00 AM48 °FClear.No wind100%30.12 "Hg10 mi
2:30 AM48 °FClear.No wind94%30.12 "Hg10 mi
2:00 AM48 °FClear.No wind100%30.12 "Hg10 mi
1:30 AM50 °FClear.2 mph94%30.12 "Hg10 mi
1:00 AM50 °FClear.1 mph94%30.12 "Hg10 mi
12:00 AM54 °FClear.2 mph88%30.12 "Hg10 mi
11:30 PM
Sat, Aug 1
54 °FClear.2 mph88%30.12 "Hg10 mi
11:00 PM54 °FClear.2 mph88%30.12 "Hg10 mi
10:30 PM54 °FPassing clouds.5 mph88%30.12 "HgN/A
10:00 PM54 °FClear.5 mph82%30.12 "Hg10 mi
9:30 PM55 °FSunny.6 mph82%30.12 "Hg10 mi
9:00 PM55 °FPassing clouds.6 mph82%30.12 "HgN/A
8:30 PM57 °FPassing clouds.7 mph77%30.12 "HgN/A
8:00 PM59 °FSunny.8 mph72%30.12 "Hg10 mi
7:30 PM59 °FSunny.9 mph72%30.12 "Hg10 mi
7:00 PM61 °FPassing clouds.10 mph68%30.12 "HgN/A
6:30 PM61 °FPassing clouds.10 mph68%30.12 "HgN/A
6:00 PM61 °FSunny.10 mph68%30.12 "Hg10 mi
5:30 PM63 °FPassing clouds.10 mph64%30.12 "HgN/A
5:00 PM64 °FPassing clouds.9 mph60%30.12 "HgN/A
4:30 PM68 °FSunny.3 mph40%30.09 "Hg10 mi
4:00 PM66 °FSunny.5 mph43%30.09 "Hg10 mi
3:30 PM66 °FPassing clouds.7 mph46%30.12 "HgN/A
3:00 PM66 °FPassing clouds.6 mph46%30.12 "HgN/A
2:30 PM64 °FPassing clouds.7 mph46%30.12 "HgN/A
2:00 PM66 °FSunny.6 mph46%30.12 "Hg10 mi
1:30 PM64 °FPassing clouds.7 mph43%30.12 "HgN/A
1:00 PM63 °FPassing clouds.5 mph49%30.12 "HgN/A
12:30 PM63 °FPassing clouds.3 mph56%30.12 "HgN/A
12:00 PM63 °FPassing clouds.6 mph52%30.12 "HgN/A
11:30 AM63 °FPassing clouds.6 mph56%30.12 "HgN/A
11:00 AM59 °FPassing clouds.9 mph59%30.12 "HgN/A
10:30 AM61 °FScattered clouds.10 mph55%30.12 "HgN/A
10:00 AM59 °FScattered clouds.9 mph59%30.09 "HgN/A
9:30 AM59 °FPassing clouds.9 mph68%30.09 "HgN/A
9:00 AM57 °FPassing clouds.8 mph72%30.09 "HgN/A
8:30 AM55 °FPassing clouds.7 mph77%30.09 "HgN/A
8:00 AM54 °FPassing clouds.5 mph82%30.09 "HgN/A
7:30 AM52 °FPassing clouds.5 mph82%30.09 "HgN/A
7:00 AM52 °FPassing clouds.5 mph82%30.07 "HgN/A
6:30 AM50 °FPassing clouds.3 mph88%30.07 "HgN/A
6:00 AM50 °FPassing clouds.5 mph88%30.07 "HgN/A
Weather by CustomWeather, © 2015

See weather overviewHow to use our weather pages